[[{"header":{"parameterUnit":"m.s-1","parameterCategory":1,"la1":30.2991,"la2":30.254,"lo1":-89.0895,"lo2":-89.0444,"dy":0.0017,"dx":0.0017,"nx":28,"ny":28,"refTime":"2024-03-26T09:00:00:Z","depth":0,"parameterNumber":2,"parameterNumberName":"U-component_of_WINDS"},"data":[0,0,0,0,0,0,0,0,0,0,0,0,0,0,0,0,0,0,0,0,0,0,0,0,0,0,0,0,0,0,0,0,0,0,0,0,0,0,0,0,0,0,0,0,0,0,0,0,0,0,0,0,0,0,0,0,0,0,0.7023,0.7023,0,0.7008,0.7008,0.7008,0.7022,0.7023,0.7024,0.7024,0.7007,0.7006,0.7005,0,0,0,0,0,0,0,0,0,0,0,0,0,0.7064,0.7063,0.7023,0.7023,0.7023,0.7008,0.7008,0.7008,0.7022,0.7023,0.7024,0.7024,0.7007,0.7006,0.7005,0,0,0,0,0,0,0,0,0,0,0,0,0,0.7047,0.7063,0.7023,0.7028,0.7029,0.7009,0.7008,0.7008,0.7022,0.7023,0.7024,0.7025,0.7008,0.7006,0.7005,0.6978,0,0,0.7,0.7,0,0,0,0,0,0,0,0,0.7048,0.7046,0.7028,0.7028,0.7028,0.7018,0.7016,0.6998,0.7022,0.7025,0.7024,0.7025,0.701,0.7008,0.7004,0.6978,0.6977,0.7,0.6999,0.6999,0.6998,0,0,0,0,0,0,0,0.7049,0.7047,0.7017,0.7028,0.7028,0.7031,0.703,0.7013,0.7013,0.7024,0.7025,0.7024,0.701,0.7005,0.7003,0.6977,0.7,0.6999,0.6998,0.6997,0.693,0.6929,0,0,0,0,0,0,0.705,0.7047,0.7018,0.7017,0.7041,0.703,0.7028,0.7021,0.7013,0.7013,0.7023,0.7024,0.7007,0.7005,0.7003,0.6972,0.6999,0.6997,0.6996,0.693,0.6929,0.6928,0,0,0,0,0,0,0.7051,0.7047,0.7018,0.7033,0.7029,0.7028,0.7019,0.702,0.7015,0.7012,0.7012,0.7018,0.7008,0.7005,0.6985,0.6971,0.6997,0.6995,0.6932,0.693,0.6929,0.6909,0,0,0,0,0,0,0.7052,0.7048,0.7037,0.7032,0.7028,0.7001,0.7019,0.7019,0.7012,0.7014,0.7007,0.7006,0.7008,0.6987,0.6983,0.697,0.6994,0.6933,0.6931,0.6929,0.6911,0.6907,0.6904,0,0,0,0,0,0.7054,0.7032,0.7037,0.7033,0.7016,0.7,0.6998,0.7001,0.7011,0.7001,0.6999,0.7006,0.6974,0.6985,0.6981,0.6967,0.6934,0.6931,0.6929,0.6912,0.6908,0.6904,0,0,0,0,0,0,0.7034,0.7031,0.7037,0.7012,0.7007,0.7002,0.6989,0.6996,0.6986,0.6988,0.6992,0.699,0.6969,0.6966,0.6978,0.6941,0.6955,0.6952,0.6944,0.6939,0.6936,0.6937,0.6993,0,0,0,0,0,0.7027,0.7015,0.7013,0.6992,0.6989,0.699,0.6983,0.6986,0.698,0.6977,0.6974,0.6967,0.6956,0.6947,0.6936,0.6911,0.691,0.69,0.6896,0.6893,0.689,0.6877,0.6873,0.6922,0.6922,0.6922,0,0,0.7012,0.7009,0.7001,0.6988,0.6984,0.6971,0.6987,0.6973,0.6963,0.6975,0.6955,0.6953,0.6946,0.6924,0.6913,0.692,0.6877,0.6891,0.6889,0.6887,0.6875,0.687,0.6866,0.692,0.692,0.6921,0,0,0.6978,0.6975,0.6958,0.6954,0.6947,0.6949,0.6944,0.694,0.6939,0.692,0.6929,0.6918,0.6898,0.6892,0.6887,0.6854,0.6861,0.6851,0.6832,0.6819,0.6816,0.6812,0.68,0.6796,0.6848,0.6848,0.6848,0,0.696,0.6942,0.6948,0.6933,0.6927,0.6939,0.6921,0.6917,0.6907,0.6903,0.6911,0.6887,0.6883,0.6859,0.6852,0.6847,0.6842,0.6851,0.6816,0.6813,0.6809,0.6798,0.6794,0.6847,0.6847,0.6847,0.6847,0,0.692,0.6907,0.6894,0.6886,0.6879,0.6862,0.6866,0.6858,0.6863,0.6863,0.6845,0.6841,0.6829,0.6825,0.6828,0.6802,0.6807,0.6815,0.6829,0.6803,0.6793,0.6789,0.6845,0.6845,0.6846,0.6846,0,0,0.6871,0.6868,0.6863,0.686,0.6855,0.6845,0.683,0.6821,0.6814,0.6807,0.6795,0.6779,0.6787,0.6781,0.6785,0.6774,0.6749,0.6784,0.6784,0.6777,0.672,0.6713,0.6708,0.6754,0.6753,0.6752,0.672,0,0.6837,0.6812,0.6817,0.6792,0.6781,0.6793,0.678,0.6776,0.6776,0.6766,0.6767,0.6755,0.6768,0.6764,0.6754,0.6754,0.6737,0.6756,0.6742,0.6741,0.6742,0.6702,0.6694,0.6664,0.6716,0.6716,0.6715,0,0.6793,0.6787,0.6761,0.6759,0.6755,0.6743,0.6735,0.6726,0.6722,0.6723,0.6718,0.6724,0.671,0.6725,0.6705,0.6718,0.6713,0.6712,0.6711,0.6709,0.6726,0.6698,0.6655,0.665,0.6709,0.6709,0.671,0,0.676,0.6745,0.6727,0.6724,0.6722,0.6714,0.6713,0.671,0.6704,0.6697,0.6694,0.6685,0.668,0.6674,0.6678,0.6689,0.6657,0.6673,0.6657,0.6657,0.6649,0.6649,0.6603,0.6647,0.6647,0.6647,0.6647,0,0.6721,0.6704,0.6713,0.6702,0.6684,0.6692,0.6674,0.6674,0.6671,0.6661,0.6671,0.6661,0.6667,0.6658,0.6661,0.6644,0.6642,0.6642,0.6643,0.6641,0.6641,0.6636,0.6638,0.6646,0.6646,0.6646,0.6647,0,0.668,0.6685,0.6667,0.6667,0.6667,0.6654,0.6654,0.6644,0.6647,0.6633,0.6631,0.6634,0.6624,0.6628,0.6616,0.6618,0.6597,0.6601,0.6598,0.6599,0.6583,0.6584,0.6532,0.6525,0.6574,0.6574,0.6573,0,0.6654,0.6642,0.6642,0.6636,0.6634,0.6624,0.6619,0.6627,0.6621,0.6617,0.6607,0.6598,0.6591,0.6573,0.6575,0.6566,0.657,0.6552,0.6568,0.6567,0.6569,0.6569,0.6568,0.6548,0.6548,0.6547,0.6547,0,0.6607,0.6611,0.6603,0.6597,0.6591,0.6586,0.6582,0.6576,0.6584,0.6577,0.6567,0.6561,0.6551,0.6541,0.6534,0.6533,0.6541,0.6542,0.6538,0.6535,0.6534,0.6534,0.6588,0.6543,0.6543,0.6543,0.6544,0.6544,0.6573,0.6563,0.6562,0.6553,0.6551,0.6548,0.6539,0.6541,0.6533,0.6526,0.6531,0.6519,0.6517,0.6508,0.6506,0.6497,0.6504,0.6498,0.6496,0.6495,0.6492,0.6536,0.6496,0.6496,0.6496,0.6496,0.6496,0,0.6526,0.6527,0.6519,0.6514,0.6507,0.6517,0.6514,0.6508,0.6498,0.6495,0.6489,0.6478,0.6469,0.6471,0.6463,0.6456,0.6459,0.6453,0.6453,0.6453,0.6487,0.6491,0.6451,0.6451,0.6451,0.6451,0.6451,0.6451,0.6501,0.6485,0.6489,0.6473,0.6473,0.6463,0.646,0.6457,0.6455,0.6443,0.6437,0.6438,0.6437,0.643,0.6423,0.6424,0.642,0.6413,0.6415,0.6446,0.645,0.6455,0.6459,0.6412,0.6412,0.6382,0.6381,0.6381]},{"header":{"parameterUnit":"m.s-1","parameterCategory":1,"la1":30.2991,"la2":30.254,"lo1":-89.0895,"lo2":-89.0444,"dy":0.0017,"dx":0.0017,"nx":28,"ny":28,"refTime":"2024-03-26T09:00:00:Z","depth":0,"parameterNumber":3,"parameterNumberName":"V-component_of_WINDS"},"data":[0,0,0,0,0,0,0,0,0,0,0,0,0,0,0,0,0,0,0,0,0,0,0,0,0,0,0,0,0,0,0,0,0,0,0,0,0,0,0,0,0,0,0,0,0,0,0,0,0,0,0,0,0,0,0,0,0,0,-4.2228,-4.2228,0,-4.2256,-4.2256,-4.2257,-4.228,-4.228,-4.228,-4.2281,-4.2303,-4.2303,-4.2304,0,0,0,0,0,0,0,0,0,0,0,0,0,-4.2191,-4.2192,-4.2228,-4.2228,-4.2229,-4.2256,-4.2256,-4.2257,-4.228,-4.228,-4.2281,-4.2281,-4.2303,-4.2303,-4.2304,0,0,0,0,0,0,0,0,0,0,0,0,0,-4.2212,-4.2192,-4.2228,-4.2244,-4.2245,-4.2256,-4.2256,-4.2257,-4.228,-4.228,-4.2281,-4.2281,-4.2303,-4.2303,-4.2304,-4.2299,0,0,-4.2305,-4.2306,0,0,0,0,0,0,0,0,-4.2211,-4.2213,-4.2241,-4.2243,-4.2244,-4.2265,-4.2252,-4.2271,-4.228,-4.2266,-4.2281,-4.2281,-4.229,-4.2291,-4.2295,-4.23,-4.2301,-4.2306,-4.2306,-4.2306,-4.2306,0,0,0,0,0,0,0,-4.2209,-4.2212,-4.2239,-4.2241,-4.2243,-4.2248,-4.2252,-4.2255,-4.2275,-4.2268,-4.2269,-4.2273,-4.2291,-4.2295,-4.2296,-4.2301,-4.2306,-4.2306,-4.2306,-4.2307,-4.2307,-4.2307,0,0,0,0,0,0,-4.2206,-4.2211,-4.2238,-4.224,-4.2228,-4.2249,-4.2252,-4.2258,-4.2275,-4.2279,-4.2272,-4.2274,-4.2294,-4.2296,-4.2297,-4.2295,-4.2306,-4.2307,-4.2307,-4.2308,-4.2307,-4.2307,0,0,0,0,0,0,-4.2205,-4.2208,-4.2237,-4.2226,-4.223,-4.2249,-4.2255,-4.2258,-4.2263,-4.2279,-4.2282,-4.2273,-4.2294,-4.2296,-4.23,-4.2296,-4.2307,-4.2307,-4.2308,-4.2307,-4.2307,-4.2289,0,0,0,0,0,0,-4.2204,-4.2208,-4.2206,-4.2226,-4.223,-4.224,-4.2255,-4.2258,-4.2264,-4.2266,-4.2281,-4.2283,-4.2295,-4.2299,-4.23,-4.2297,-4.2308,-4.2308,-4.2308,-4.2307,-4.229,-4.2288,-4.2287,0,0,0,0,0,-4.2203,-4.2198,-4.2206,-4.2209,-4.2229,-4.2239,-4.2242,-4.2257,-4.2264,-4.2263,-4.2274,-4.2283,-4.2296,-4.2299,-4.2301,-4.2297,-4.2309,-4.2308,-4.2307,-4.2291,-4.2289,-4.2287,0,0,0,0,0,0,-4.2174,-4.2201,-4.221,-4.2212,-4.2224,-4.2243,-4.2242,-4.2253,-4.2261,-4.2263,-4.2279,-4.2282,-4.2284,-4.2291,-4.2293,-4.2296,-4.2304,-4.2304,-4.2291,-4.2289,-4.2287,-4.2285,-4.2308,0,0,0,0,0,-4.2169,-4.2176,-4.2198,-4.2198,-4.2204,-4.2222,-4.2227,-4.2238,-4.225,-4.2254,-4.2265,-4.2275,-4.2282,-4.2286,-4.2293,-4.2292,-4.2296,-4.2291,-4.2289,-4.2287,-4.2287,-4.229,-4.2288,-4.2305,-4.2305,-4.2305,0,0,-4.2156,-4.2172,-4.2175,-4.2193,-4.2203,-4.221,-4.2226,-4.2231,-4.2236,-4.2254,-4.2259,-4.2268,-4.228,-4.2283,-4.2284,-4.2288,-4.2284,-4.2287,-4.2285,-4.2285,-4.2289,-4.2287,-4.2286,-4.2304,-4.2304,-4.2305,0,0,-4.2138,-4.215,-4.2152,-4.2164,-4.2181,-4.2194,-4.2195,-4.2214,-4.2222,-4.2228,-4.2243,-4.2248,-4.2259,-4.2268,-4.2274,-4.2265,-4.2274,-4.2266,-4.2256,-4.2259,-4.2258,-4.2257,-4.2255,-4.2254,-4.2265,-4.2265,-4.2265,0,-4.2119,-4.2132,-4.2151,-4.2158,-4.2166,-4.2187,-4.219,-4.2199,-4.2216,-4.2221,-4.2226,-4.2244,-4.2253,-4.2259,-4.2257,-4.2261,-4.2263,-4.2264,-4.2257,-4.2256,-4.2255,-4.2254,-4.2253,-4.2265,-4.2265,-4.2265,-4.2265,0,-4.211,-4.2119,-4.2119,-4.2139,-4.2147,-4.2151,-4.2172,-4.2177,-4.2189,-4.2201,-4.2209,-4.2221,-4.2233,-4.2235,-4.2244,-4.2244,-4.2246,-4.2254,-4.2262,-4.2252,-4.2251,-4.2251,-4.2263,-4.2264,-4.2264,-4.2264,0,0,-4.2071,-4.2107,-4.2106,-4.2117,-4.214,-4.2146,-4.2152,-4.2167,-4.2172,-4.2184,-4.2191,-4.2202,-4.2211,-4.2217,-4.2228,-4.2231,-4.2225,-4.2239,-4.2239,-4.2237,-4.2227,-4.2222,-4.2221,-4.2232,-4.2232,-4.2232,-4.2227,0,-4.2057,-4.2072,-4.2092,-4.2099,-4.2109,-4.213,-4.2136,-4.215,-4.2163,-4.2172,-4.2185,-4.2194,-4.2203,-4.2208,-4.2212,-4.2225,-4.2224,-4.2226,-4.2238,-4.2238,-4.2234,-4.222,-4.2213,-4.2208,-4.2226,-4.2226,-4.2226,0,-4.2041,-4.2057,-4.2067,-4.2093,-4.2097,-4.2102,-4.2119,-4.2127,-4.2145,-4.2154,-4.2164,-4.2178,-4.2186,-4.2194,-4.2206,-4.2207,-4.2213,-4.2221,-4.2221,-4.2223,-4.2231,-4.2222,-4.2206,-4.2206,-4.2225,-4.2225,-4.2226,0,-4.2015,-4.2037,-4.2047,-4.2056,-4.2085,-4.2089,-4.2101,-4.2119,-4.2128,-4.2142,-4.2148,-4.2162,-4.2169,-4.218,-4.2197,-4.2201,-4.2207,-4.2216,-4.2215,-4.2215,-4.2215,-4.2214,-4.22,-4.2218,-4.2218,-4.2218,-4.2218,0,-4.1997,-4.2002,-4.2036,-4.2042,-4.205,-4.2073,-4.2079,-4.2093,-4.2109,-4.2118,-4.2137,-4.2144,-4.2166,-4.2176,-4.2189,-4.2198,-4.2201,-4.2209,-4.2212,-4.2207,-4.2207,-4.2211,-4.2213,-4.2218,-4.2218,-4.2218,-4.2218,0,-4.1967,-4.199,-4.2003,-4.2032,-4.2039,-4.2044,-4.2068,-4.2075,-4.209,-4.2101,-4.2105,-4.2129,-4.2142,-4.2161,-4.2178,-4.2188,-4.2195,-4.22,-4.219,-4.2192,-4.2191,-4.2191,-4.218,-4.218,-4.2196,-4.2196,-4.2196,0,-4.1954,-4.196,-4.1991,-4.2,-4.2013,-4.2026,-4.2037,-4.206,-4.207,-4.2093,-4.2097,-4.2113,-4.2127,-4.2147,-4.2165,-4.218,-4.2186,-4.2181,-4.2188,-4.2184,-4.2187,-4.2187,-4.2188,-4.2179,-4.2178,-4.2178,-4.2178,0,-4.193,-4.1943,-4.1958,-4.1979,-4.1992,-4.2008,-4.2025,-4.2031,-4.2058,-4.2068,-4.2085,-4.2096,-4.2117,-4.2132,-4.215,-4.2162,-4.2175,-4.2176,-4.2177,-4.2172,-4.2167,-4.2171,-4.2187,-4.2176,-4.2176,-4.2176,-4.2176,-4.2177,-4.191,-4.1917,-4.1942,-4.1959,-4.1976,-4.1992,-4.2002,-4.202,-4.2035,-4.2056,-4.2069,-4.2084,-4.2104,-4.2131,-4.2142,-4.2154,-4.2159,-4.216,-4.216,-4.216,-4.2159,-4.2165,-4.2157,-4.2157,-4.2157,-4.2158,-4.2158,0,-4.1888,-4.1906,-4.1922,-4.1948,-4.1962,-4.1977,-4.1998,-4.2008,-4.2023,-4.2042,-4.2057,-4.2076,-4.2093,-4.2114,-4.2131,-4.2137,-4.2144,-4.2141,-4.2141,-4.2144,-4.2153,-4.2151,-4.2136,-4.2136,-4.2136,-4.2136,-4.2136,-4.2136,-4.1878,-4.1892,-4.1908,-4.1931,-4.1949,-4.1967,-4.1978,-4.1994,-4.201,-4.2032,-4.2047,-4.2062,-4.2082,-4.2102,-4.2118,-4.2124,-4.213,-4.2126,-4.2133,-4.2141,-4.2143,-4.2145,-4.2143,-4.2127,-4.2127,-4.2124,-4.2124,-4.2124]}]]